HP3ICC-16 Weather Reports


time (UTC)temp
C
wind
direction
speed
KPH
gust
KPH
rain 1hr
cm
rain 24hr
cm
rain mn
cm
humidity
%
barometer
mb
20260504100305 25 353 1.6 0.0 0.00 0.00 0.00 83 1009.0
20260504100204 25 353 1.6 0.0 0.00 0.00 0.00 83 1009.0
20260504080301 24 356 1.6 0.0 0.00 0.00 0.00 84 1009.0
20260504080201 24 356 1.6 0.0 0.00 0.00 0.00 84 1009.0
20260504070300 22 48 1.6 1.6 0.00 0.00 0.00 85 1010.0
20260504070159 22 48 1.6 1.6 0.00 0.00 0.00 85 1010.0
20260504060158 23 48 1.6 1.6 0.00 0.00 0.00 85 1011.0
20260504050257 25 48 1.6 1.6 0.00 0.00 0.00 85 1011.0
20260504050157 25 48 1.6 1.6 0.00 0.00 0.00 85 1011.0
20260504044256 26 48 3.2 3.2 0.00 0.00 0.00 85 1011.0
20260504044156 26 48 3.2 3.2 0.00 0.00 0.00 85 1011.0
20260504042256 22 50 4.8 0.0 0.00 0.00 0.00 89 1011.0
20260504042155 22 50 4.8 0.0 0.00 0.00 0.00 89 1011.0
20260504040255 23 50 4.8 0.0 0.00 0.00 0.00 89 1011.0
20260504040155 23 50 4.8 0.0 0.00 0.00 0.00 89 1011.0
20260504034255 23 50 4.8 0.0 0.00 0.00 0.00 89 1011.0
20260504034155 23 50 4.8 0.0 0.00 0.00 0.00 89 1011.0
20260504032255 24 50 4.8 0.0 0.00 0.00 0.00 89 1010.0
20260504030254 25 50 4.8 0.0 0.00 0.00 0.00 89 1011.0
20260504030154 25 50 4.8 0.0 0.00 0.00 0.00 89 1011.0
20260504024253 25 50 4.8 0.0 0.00 0.00 0.00 89 1010.0
20260504024153 25 50 4.8 0.0 0.00 0.00 0.00 89 1010.0
20260504022253 23 240 8.0 0.0 0.00 0.00 0.00 66 1009.0
20260504022153 23 240 8.0 0.0 0.00 0.00 0.00 66 1009.0
20260504020252 23 240 8.0 0.0 0.00 0.00 0.00 66 1010.0
20260504020152 23 240 8.0 0.0 0.00 0.00 0.00 66 1010.0
20260504014252 24 240 8.0 0.0 0.00 0.00 0.00 66 1010.0
20260504014151 24 240 8.0 0.0 0.00 0.00 0.00 66 1010.0
20260504012251 25 240 8.0 0.0 0.00 0.00 0.00 66 1010.0
20260504012150 25 240 8.0 0.0 0.00 0.00 0.00 66 1010.0
20260504010250 25 240 8.0 0.0 0.00 0.00 0.00 66 1010.0
20260504010150 25 240 8.0 0.0 0.00 0.00 0.00 66 1010.0
20260504004250 26 240 8.0 0.0 0.00 0.00 0.00 66 1010.0
20260504004150 26 240 8.0 0.0 0.00 0.00 0.00 66 1010.0
20260504002249 26 240 8.0 0.0 0.00 0.00 0.00 66 1009.0
20260504002149 26 240 8.0 0.0 0.00 0.00 0.00 66 1009.0
20260504000248 27 240 8.0 0.0 0.00 0.00 0.00 66 1009.0
20260504000148 27 240 8.0 0.0 0.00 0.00 0.00 66 1009.0
20260503234248 27 240 8.0 0.0 0.00 0.00 0.00 66 1009.0
20260503234148 27 240 8.0 0.0 0.00 0.00 0.00 66 1009.0
20260503232247 28 240 8.0 0.0 0.00 0.00 0.00 66 1008.0
20260503232147 28 240 8.0 0.0 0.00 0.00 0.00 66 1008.0
20260503230247 28 240 8.0 0.0 0.00 0.00 0.00 66 1008.0
20260503230147 28 240 8.0 0.0 0.00 0.00 0.00 66 1008.0
20260503224246 29 240 8.0 0.0 0.00 0.00 0.00 66 1008.0
20260503224146 29 240 8.0 0.0 0.00 0.00 0.00 66 1008.0
20260503222246 25 200 12.9 0.0 0.00 0.00 0.00 70 1008.0
20260503222145 25 200 12.9 0.0 0.00 0.00 0.00 70 1008.0
20260503220245 25 200 12.9 0.0 0.03 0.00 0.00 70 1008.0
20260503220145 25 200 12.9 0.0 0.03 0.00 0.00 70 1008.0
20260503214244 26 200 12.9 0.0 0.00 0.00 0.00 70 1008.0
20260503214144 26 200 12.9 0.0 0.00 0.00 0.00 70 1008.0
20260503212244 26 200 12.9 0.0 0.03 0.00 0.00 70 1008.0
20260503212143 26 200 12.9 0.0 0.03 0.00 0.00 70 1008.0
20260503210243 27 200 12.9 0.0 0.00 0.00 0.00 70 1008.0
20260503210143 27 200 12.9 0.0 0.00 0.00 0.00 70 1008.0
20260503204243 27 200 12.9 0.0 0.03 0.00 0.00 70 1008.0
20260503204142 27 200 12.9 0.0 0.03 0.00 0.00 70 1008.0
20260503202242 28 200 12.9 0.0 0.00 0.00 0.00 70 1009.0
20260503202142 28 200 12.9 0.0 0.00 0.00 0.00 70 1009.0
20260503200242 28 200 12.9 0.0 0.00 0.00 0.00 70 1009.0
20260503200142 28 200 12.9 0.0 0.00 0.00 0.00 70 1009.0
20260503194241 29 200 12.9 0.0 0.00 0.00 0.00 70 1009.0
20260503194141 29 200 12.9 0.0 0.00 0.00 0.00 70 1009.0
20260503192240 30 200 12.9 0.0 0.00 0.00 0.00 70 1009.0
20260503192140 30 200 12.9 0.0 0.00 0.00 0.00 70 1009.0
20260503190240 30 190 8.0 0.0 0.00 0.00 0.00 70 1010.0
20260503190140 30 190 8.0 0.0 0.00 0.00 0.00 70 1010.0
20260503184239 26 190 8.0 0.0 0.00 0.00 0.00 74 1010.0
20260503184139 26 190 8.0 0.0 0.00 0.00 0.00 74 1010.0
20260503182239 26 190 8.0 0.0 0.00 0.00 0.00 74 1011.0
20260503182139 26 190 8.0 0.0 0.00 0.00 0.00 74 1011.0
20260503180238 27 210 8.0 0.0 0.00 0.00 0.00 74 1011.0
20260503180138 27 210 8.0 0.0 0.00 0.00 0.00 74 1011.0
20260503174238 27 210 8.0 0.0 0.00 0.00 0.00 74 1011.0
20260503174138 27 210 8.0 0.0 0.00 0.00 0.00 74 1011.0
20260503172237 28 210 8.0 0.0 0.00 0.00 0.00 74 1011.0
20260503172137 28 210 8.0 0.0 0.00 0.00 0.00 74 1011.0
20260503170237 28 150 6.4 0.0 0.00 0.00 0.00 74 1012.0
20260503170136 28 150 6.4 0.0 0.00 0.00 0.00 74 1012.0
20260503160135 24 110 4.8 0.0 0.00 0.00 0.00 89 1012.0
20260503150233 26 0 1.6 0.0 0.00 0.00 0.00 89 1012.0
20260503150133 26 0 1.6 0.0 0.00 0.00 0.00 89 1012.0
20260503140231 24 0 3.2 0.0 0.00 0.00 0.00 94 1011.0
20260503140131 24 0 3.2 0.0 0.00 0.00 0.00 94 1011.0
20260503130229 22 0 1.6 0.0 0.00 0.00 0.00 10 1010.0
20260503130129 22 0 1.6 0.0 0.00 0.00 0.00 10 1010.0
20260503120128 22 30 1.6 0.0 0.00 0.00 0.00 10 1010.0
20260503110226 22 50 6.4 6.4 0.00 0.00 0.00 87 1010.0
20260503110126 22 50 6.4 6.4 0.00 0.00 0.00 87 1010.0